Temperature
28 28 28 28 28 29 29 29 29 30 29 29 27 27 26 25 25 24 24 23 23 22 22 22 21 21 20 20 20 20 20 20 19 19 19 19 19 19 19 18 18 18 18 18
26 27 27 27 28 28 28 28 29 29 28 28 26 26 25 24 24 24 23 23 22 22 21 21 21 20 20 20 20 20 19 19 19 19 19 19 19 19 19 18 18 18 18 18
26 27 27 27 27 28 28 28 28 28 28 26 26 25 24 23 23 23 22 22 21 21 21 20 20 20 20 20 20 20 19 19 19 19 19 19 19 18 18 18 18 18 18 17
25 25 24 27 27 27 27 26 27 26 26 25 24 23 23 22 22 22 21 21 21 21 21 20 20 20 20 20 19 19 19 19 19 19 19 19 18 18 18 18 17 17 17 17
25 25 25 26 26 26 26 25 25 25 25 24 23 23 23 22 21 21 20 20 20 20 20 20 20 20 19 19 19 19 19 19 18 18 18 18 18 18 18 17 17 17 17 17
24 24 24 25 25 24 25 24 24 24 24 23 23 25 24 21 20 20 20 19 19 20 19 19 19 19 19 19 18 18 18 18 18 18 18 18 18 18 17 17 17 17 16 16
23 23 24 24 23 23 24 24 22 22 22 22 22 23 21 20 19 19 19 19 19 19 19 19 19 18 18 18 18 18 18 18 18 18 18 18 17 17 17 17 17 16 16 16
23 23 23 22 23 23 22 21 20 20 20 20 20 20 20 19 19 19 18 18 18 18 18 18 18 18 18 18 18 17 17 17 17 17 17 17 17 17 16 16 16 16 16 15
22 22 21 21 21 20 19 20 19 19 19 19 19 19 19 18 18 18 18 18 18 18 17 17 17 17 17 18 17 17 17 17 17 17 17 16 16 16 16 16 15 15 15 15
20 21 20 20 19 19 18 18 18 18 18 18 18 18 18 18 17 17 17 17 17 17 17 17 17 17 17 17 17 17 17 16 16 16 16 16 15 15 15 15 15 15 15 15
19 20 19 19 18 18 18 18 18 18 18 18 18 17 17 17 17 16 16 16 16 16 17 17 17 17 17 16 16 16 16 16 16 16 15 15 15 15 15 15 15 15 15 14
19 19 19 19 18 17 17 17 17 17 17 17 17 17 16 16 16 16 16 16 16 16 16 16 16 16 16 16 16 16 16 15 15 15 15 15 15 15 14 14 14 14 14 14
17 17 17 17 16 16 16 16 16 16 16 16 16 16 16 15 15 15 15 15 15 15 16 16 16 16 16 16 15 15 15 15 15 15 15 15 14 14 14 14 14 14 13 13
15 15 15 16 16 15 15 15 15 15 15 15 15 15 15 15 15 15 15 15 15 15 15 15 15 15 15 15 15 15 15 14 14 14 14 14 14 14 13 13 13 13 13 13
14 15 15 15 15 15 15 15 15 15 15 15 14 14 14 14 14 14 14 14 14 14 14 14 14 14 14 14 14 14 14 14 14 14 14 13 13 13 13 13 13 12 12 12
14 14 14 14 14 14 14 14 14 14 14 14 14 14 13 13 13 13 13 13 13 13 13 13 13 13 13 13 13 13 14 13 13 13 13 13 13 13 13 12 12 12 12 12
13 14 14 14 14 14 14 14 13 13 13 13 13 13 13 13 13 13 12 13 13 13 13 13 13 13 13 13 13 13 13 13 13 13 13 12 12 12 12 12 12 12 12 11
13 13 13 13 13 13 13 13 13 13 13 12 12 12 12 12 12 12 12 12 12 12 12 12 12 12 12 12 12 13 13 12 12 12 12 12 12 12 12 12 11 11 11 11
12 12 12 12 12 12 12 12 12 12 12 12 12 12 12 11 11 11 11 11 11 11 11 11 11 11 11 11 12 12 12 12 12 12 11 11 11 11 11 11 11 11 10 10
12 12 12 12 12 12 12 12 12 11 11 11 11 11 11 11 11 11 11 11 11 11 11 11 11 11 11 11 11 11 11 11 11 11 11 11 11 11 10 10 10 10 10 10
11 12 11 11 11 11 11 11 11 11 11 11 11 11 11 11 11 10 10 10 10 10 10 11 10 10 10 11 11 11 11 11 11 11 11 10 10 10 10 10 10 9 9 9
11 11 11 11 11 10 10 10 10 10 10 11 11 11 11 10 10 10 10 10 10 10 10 10 10 10 10 10 10 10 10 10 10 10 10 10 10 10 9 9 9 9 9 9
11 11 11 10 10 10 10 10 10 10 10 10 10 10 10 10 10 10 10 10 10 10 10 10 10 10 10 10 10 10 10 10 10 10 10 9 9 9 9 9 9 9 9 9
10 10 10 10 10 10 10 10 10 10 10 10 10 10 10 10 10 10 10 10 10 10 10 9 9 9 9 9 9 9 9 9 9 10 9 9 9 9 9 8 8 8 8 8
10 10 10 10 10 10 10 10 10 10 10 10 10 10 10 10 10 9 9 9 9 9 9 9 9 9 9 9 9 9 9 9 9 9 9 9 9 9 8 8 8 8 8 7
10 10 10 10 10 10 10 10 10 10 10 10 10 10 9 9 9 9 9 9 9 9 9 9 9 9 9 9 9 9 9 9 9 9 8 8 8 8 8 8 7 7 7 7
10 10 10 10 10 10 10 10 10 10 10 10 10 9 9 9 9 9 9 9 9 9 8 8 8 8 9 9 8 8 8 8 8 8 8 8 7 7 7 7 7 6 6 6
Wind_Speed
10 9 8 10 12 13 14 15 14 11 10 6 3 3 1 0 1 2 3 4 4 5 5 6 6 6 6 7 7 7 7 8 7 7 7 7 6 6 6 6 6 6 5 5
10 10 10 12 12 13 14 14 14 12 10 4 3 3 2 1 1 2 2 3 4 4 5 5 5 6 6 6 6 7 7 7 7 7 7 7 6 6 6 6 5 5 6 5
11 10 11 15 12 12 12 12 12 13 8 3 3 3 3 2 1 1 2 2 3 3 4 4 4 5 6 6 6 7 7 7 6 7 7 7 7 6 6 6 6 6 6 5
9 9 15 7 3 7 9 8 8 6 4 4 4 4 3 2 2 2 1 2 2 2 2 3 4 4 4 5 5 6 6 6 6 6 6 6 6 6 6 6 6 5 5 5
9 13 12 7 5 7 9 8 6 6 5 4 3 4 4 3 1 1 1 1 1 1 2 2 3 3 4 5 5 5 5 5 5 5 5 6 6 6 6 6 5 5 5 5
10 12 13 6 2 2 6 9 5 5 5 5 5 7 4 2 1 1 1 0 0 1 1 2 2 3 4 4 4 5 4 4 4 5 5 6 6 5 4 5 5 5 5 5
13 13 8 1 2 4 9 4 2 2 3 5 5 3 1 2 2 2 1 1 0 1 1 1 2 3 4 4 4 4 4 4 4 5 5 6 5 5 4 4 4 5 4 4
11 13 8 0 3 4 1 2 1 1 2 3 4 3 2 2 2 2 1 1 1 1 1 1 2 3 3 4 4 4 4 4 4 5 5 4 4 5 5 5 5 5 4 4
6 4 1 0 1 0 1 1 2 3 3 3 4 4 3 3 2 2 2 2 1 1 1 1 2 2 3 3 3 4 4 4 4 4 3 3 4 4 4 5 4 4 4 4
6 5 3 2 1 2 2 3 3 4 4 4 4 4 4 3 3 2 2 2 2 2 2 2 2 2 2 3 3 3 3 3 3 3 3 3 3 3 3 3 3 4 4 4
8 7 5 5 4 3 3 4 4 4 4 4 4 4 4 3 3 3 3 3 3 3 3 2 2 2 2 2 3 3 3 3 3 3 2 3 2 1 2 2 2 3 3 3
8 6 6 5 4 4 5 6 5 5 4 4 4 4 3 3 3 3 3 3 3 4 3 2 2 2 2 2 3 4 3 3 3 3 3 3 2 1 3 1 2 1 2 2
8 8 8 7 7 7 7 7 6 6 6 5 4 4 4 3 3 3 3 4 4 3 3 2 2 2 2 2 3 3 3 3 3 3 3 3 3 3 2 1 3 2 2 2
7 7 8 8 8 7 7 7 6 6 6 5 4 3 3 3 3 3 3 3 3 2 2 2 1 1 2 2 3 3 3 2 3 3 2 2 3 3 3 3 2 1 1 3
8 8 8 8 7 7 6 6 6 5 5 5 4 3 3 3 3 3 3 2 2 2 2 1 1 1 1 2 2 3 2 2 2 2 2 2 2 2 2 3 3 2 1 1
8 7 7 7 6 6 6 5 5 5 5 4 3 2 2 2 2 2 2 2 2 1 1 1 1 1 1 1 1 1 1 0 1 2 2 2 2 2 2 2 2 2 2 1
7 7 6 6 6 6 5 4 4 4 3 3 2 1 1 2 2 1 1 1 1 1 1 2 2 2 1 1 1 1 1 1 1 2 2 1 1 1 2 2 2 2 2 2
7 7 6 6 4 4 3 3 3 2 2 2 1 1 1 2 1 1 1 1 2 2 3 3 3 2 1 1 0 1 1 1 1 1 1 1 1 1 1 1 1 1 1 2
4 4 4 3 3 2 2 1 1 1 1 1 1 1 1 1 1 0 1 1 2 2 3 3 3 2 1 2 1 0 1 1 1 1 1 1 2 1 1 1 1 1 1 2
1 0 1 1 1 1 0 0 0 0 0 1 1 1 1 1 1 1 1 1 1 2 2 3 3 2 1 1 2 0 0 0 1 1 1 1 1 1 1 1 1 1 1 1
3 3 3 3 2 2 1 1 1 1 1 1 1 1 2 2 2 2 1 1 2 3 2 2 2 2 2 2 2 0 0 1 1 1 1 1 1 0 1 1 1 1 1 1
3 3 3 3 3 3 2 1 1 1 1 2 3 2 3 3 3 3 2 2 3 4 3 3 3 4 4 2 1 1 1 1 1 1 2 1 1 1 1 1 1 1 1 1
3 3 3 3 3 3 3 2 2 2 2 3 3 2 2 2 1 2 2 3 3 3 3 3 5 5 4 2 2 2 2 2 2 2 2 1 1 1 1 1 1 1 1 1
2 3 3 3 3 3 3 3 3 3 3 3 3 2 2 2 2 3 3 5 5 4 4 5 5 3 2 2 2 3 2 2 2 3 3 2 2 2 2 1 1 1 1 1
2 2 3 2 2 2 3 3 3 3 3 3 3 3 3 3 3 4 4 4 4 4 4 5 4 2 2 2 3 3 3 3 3 3 3 2 2 3 3 3 2 2 2 2
2 2 2 2 2 1 2 2 2 3 3 4 4 4 4 4 5 5 4 5 5 4 3 3 4 2 3 3 4 4 3 3 3 3 3 3 3 3 3 4 4 3 3 3
2 2 2 2 2 2 2 3 3 3 3 3 4 4 4 4 5 5 5 4 4 4 4 4 3 3 3 4 4 3 3 3 4 4 4 4 4 4 4 4 3 3 3 3
Wind_Direction
259 267 258 245 238 234 241 251 257 256 250 253 252 250 257 258 134 137 149 154 159 165 162 166 168 173 181 184 183 186 191 197 198 198 199 204 205 206 205 209 213 211 213 213
247 245 246 246 247 242 240 245 249 253 253 258 234 211 204 192 156 146 142 145 149 158 159 169 177 182 183 186 184 187 197 203 198 198 200 204 205 206 207 211 217 216 217 215
247 241 246 241 239 242 240 240 245 249 246 212 210 198 195 186 167 162 141 131 138 154 159 168 176 180 184 186 187 191 198 203 201 202 205 204 206 206 208 210 213 216 216 217
248 242 244 245 234 245 241 242 253 255 234 221 211 206 203 190 173 164 147 144 148 160 165 168 169 175 180 183 185 191 198 203 206 208 206 204 206 209 210 210 215 219 219 220
242 243 247 233 225 232 236 235 240 233 216 211 205 196 198 194 187 183 182 181 181 179 173 165 169 174 177 187 190 194 201 205 205 207 207 207 211 212 212 210 213 218 221 222
237 247 249 242 196 249 245 229 207 221 218 218 226 229 196 169 203 208 242 216 187 184 174 171 180 184 186 192 198 203 204 205 204 206 207 206 209 209 206 206 212 221 221 219
238 244 247 259 251 228 234 227 150 223 230 231 240 273 272 230 232 237 239 242 213 221 212 203 203 198 201 202 209 211 207 206 208 211 213 211 206 205 204 207 211 219 217 214
235 242 242 46 226 235 306 54 100 276 271 264 261 257 239 250 246 253 260 254 247 248 251 244 220 204 205 213 216 210 207 210 216 216 219 212 207 209 209 208 207 211 208 211
249 253 33 346 255 356 324 294 301 292 285 278 270 264 255 262 265 270 278 280 279 271 261 245 235 217 217 225 222 211 209 211 212 212 214 211 210 212 213 210 216 218 213 216
251 242 251 260 262 273 300 308 305 298 289 273 265 269 262 263 265 258 265 269 274 273 267 267 252 234 227 224 213 212 216 216 207 204 204 202 210 218 221 222 226 227 226 226
248 252 256 243 251 266 290 295 297 298 287 278 269 269 266 251 250 251 255 258 262 268 275 274 258 242 236 223 206 212 216 221 219 213 197 195 205 229 226 241 244 240 237 233
257 254 257 254 259 274 281 283 289 295 293 289 274 268 270 264 259 252 255 258 257 261 268 274 270 267 263 236 207 209 207 211 224 220 203 204 191 177 47 55 99 96 359 276
269 270 270 271 274 277 277 280 283 287 286 283 278 271 270 273 266 259 252 252 255 256 260 270 280 278 262 227 212 213 212 222 234 226 214 216 212 209 202 75 91 120 161 205
265 264 262 264 268 270 273 277 279 279 281 278 274 273 274 273 272 269 268 263 259 258 257 265 278 279 264 226 209 210 220 217 235 236 226 219 220 229 221 216 218 229 170 168
267 263 259 262 261 260 264 268 269 271 275 271 265 268 266 270 277 286 286 277 270 261 268 284 305 308 274 217 202 209 222 222 238 252 242 229 221 228 225 221 216 207 211 166
274 272 263 257 255 256 256 260 265 273 277 268 265 272 277 283 283 292 305 296 277 278 308 322 326 321 286 194 189 219 240 80 259 243 235 226 222 228 235 223 212 204 199 188
270 268 263 257 252 250 249 253 262 274 275 271 269 265 260 266 279 303 329 347 9 17 10 2 1 355 353 154 181 210 226 201 221 248 239 222 213 216 224 227 224 211 198 144
274 271 265 258 257 249 251 250 251 259 260 252 248 232 243 269 285 324 10 50 66 45 22 11 8 4 22 42 194 193 206 220 210 212 240 227 216 220 224 223 213 209 185 160
274 270 258 243 235 237 257 274 258 269 256 235 230 212 208 226 216 171 99 82 65 39 9 11 13 355 16 21 358 146 179 187 179 152 168 178 210 216 213 214 203 191 174 167
348 312 179 169 166 173 209 312 74 60 204 183 175 161 148 144 148 142 126 89 27 8 6 10 3 358 1 16 331 267 195 179 154 137 159 201 222 233 191 171 161 152 172 174
36 51 80 96 99 99 88 72 74 103 137 140 127 116 108 98 96 98 99 65 38 32 34 37 16 11 15 2 293 293 58 132 129 133 129 108 84 92 135 146 149 173 186 171
33 45 67 81 89 88 86 96 105 107 113 114 106 104 100 95 89 80 62 47 52 44 43 45 45 37 17 348 21 48 57 76 89 92 88 84 87 82 109 134 145 142 94 79
25 34 54 67 80 88 85 87 97 102 104 104 103 105 101 99 102 93 77 66 66 56 56 57 49 36 1 14 41 51 49 48 67 79 86 92 85 81 83 91 77 73 65 54
30 42 64 82 87 89 84 81 85 92 97 98 98 98 102 104 91 79 80 81 69 71 68 64 61 41 6 49 55 58 58 53 55 65 68 71 72 65 59 64 64 57 60 51
44 55 69 78 88 88 88 93 93 97 106 101 98 99 100 98 99 90 86 88 85 82 79 87 94 67 64 63 61 58 55 50 47 51 59 48 44 51 54 48 41 42 39 37
60 57 67 72 71 83 95 100 106 106 103 99 91 88 88 89 91 92 95 97 89 75 62 71 83 85 70 65 60 53 50 56 60 54 47 43 44 46 49 46 44 35 35 33
74 83 90 86 82 78 82 90 94 98 101 102 99 91 90 91 90 88 87 85 80 72 63 55 55 58 56 57 59 53 48 46 46 44 42 40 40 43 46 46 38 36 34 34
Height
1471 1468 1467 1469 1469 1469 1471 1469 1471 1469 1469 1470 1474 1477 1480 1481 1482 1483 1484 1485 1487 1488 1490 1492 1494 1496 1498 1500 1502 1504 1506 1508 1510 1511 1512 1514 1515 1516 1517 1518 1518 1519 1519 1519
1475 1470 1469 1470 1468 1467 1468 1467 1467 1468 1469 1471 1475 1478 1480 1481 1482 1483 1484 1486 1487 1488 1489 1490 1492 1494 1495 1497 1499 1501 1503 1505 1507 1508 1509 1511 1512 1513 1514 1514 1515 1515 1516 1516
1475 1470 1470 1472 1466 1465 1465 1464 1466 1467 1467 1472 1475 1477 1480 1482 1483 1483 1484 1485 1486 1487 1488 1489 1490 1491 1493 1494 1497 1499 1500 1502 1504 1505 1506 1507 1509 1510 1510 1511 1511 1511 1512 1512
1475 1478 1485 1465 1462 1463 1464 1465 1465 1467 1470 1473 1476 1478 1480 1482 1483 1483 1484 1485 1486 1486 1487 1488 1489 1490 1491 1493 1494 1496 1497 1499 1500 1501 1503 1503 1504 1505 1506 1507 1507 1507 1508 1508
1475 1475 1470 1465 1463 1464 1465 1467 1467 1468 1471 1474 1476 1477 1479 1481 1481 1482 1483 1484 1484 1485 1486 1487 1487 1489 1489 1491 1492 1493 1494 1495 1497 1498 1499 1500 1501 1501 1502 1503 1504 1504 1505 1505
1475 1478 1475 1464 1462 1465 1467 1468 1468 1470 1471 1473 1474 1472 1474 1479 1480 1481 1482 1482 1483 1483 1484 1484 1485 1487 1487 1488 1489 1490 1491 1492 1493 1494 1495 1496 1497 1498 1498 1499 1500 1501 1501 1501
1474 1473 1464 1464 1465 1467 1472 1468 1470 1471 1472 1473 1473 1473 1476 1477 1478 1479 1480 1480 1481 1481 1482 1482 1483 1483 1484 1485 1486 1487 1488 1489 1490 1491 1492 1493 1493 1494 1495 1495 1496 1497 1497 1498
1470 1472 1469 1466 1465 1467 1469 1471 1471 1472 1473 1473 1474 1474 1475 1476 1477 1477 1478 1478 1479 1479 1479 1480 1480 1481 1481 1482 1483 1484 1485 1485 1486 1487 1489 1490 1490 1490 1491 1491 1492 1493 1493 1494
1466 1468 1469 1469 1469 1471 1472 1472 1472 1472 1472 1473 1472 1472 1473 1474 1474 1475 1476 1476 1476 1476 1476 1477 1477 1478 1478 1479 1480 1480 1481 1482 1483 1484 1484 1485 1486 1486 1487 1488 1489 1489 1489 1490
1468 1466 1469 1470 1471 1472 1472 1471 1471 1471 1471 1471 1470 1471 1471 1472 1472 1473 1473 1474 1474 1474 1474 1474 1474 1474 1475 1475 1476 1477 1478 1478 1479 1480 1480 1481 1482 1483 1483 1483 1484 1485 1485 1485
1468 1468 1469 1470 1471 1471 1471 1471 1471 1470 1470 1469 1469 1469 1469 1469 1470 1470 1471 1472 1472 1472 1472 1472 1472 1472 1472 1473 1473 1474 1475 1476 1477 1477 1477 1478 1478 1479 1479 1479 1480 1481 1481 1481
1466 1467 1468 1468 1470 1470 1470 1469 1469 1468 1468 1467 1467 1467 1467 1467 1468 1468 1469 1469 1470 1470 1470 1470 1469 1469 1470 1470 1471 1471 1471 1472 1474 1474 1474 1475 1475 1475 1475 1476 1476 1476 1477 1478
1468 1467 1467 1467 1468 1468 1467 1467 1467 1466 1466 1465 1465 1465 1465 1465 1466 1466 1466 1467 1467 1467 1467 1467 1467 1467 1467 1467 1468 1468 1468 1470 1471 1472 1471 1472 1472 1472 1472 1472 1472 1472 1473 1473
1466 1466 1465 1465 1465 1465 1465 1464 1464 1463 1463 1462 1462 1462 1463 1463 1464 1464 1464 1464 1464 1464 1465 1464 1464 1464 1464 1465 1465 1465 1466 1467 1468 1468 1468 1468 1469 1469 1469 1469 1469 1469 1469 1469
1463 1463 1462 1461 1461 1461 1461 1461 1461 1460 1460 1460 1460 1460 1461 1461 1461 1461 1461 1461 1461 1462 1462 1462 1462 1462 1462 1462 1462 1463 1464 1465 1465 1465 1466 1466 1466 1466 1467 1466 1467 1466 1466 1466
1459 1459 1458 1458 1457 1458 1458 1458 1457 1457 1457 1457 1457 1458 1458 1459 1459 1459 1459 1459 1459 1460 1460 1460 1459 1459 1459 1459 1460 1460 1461 1461 1462 1462 1463 1463 1463 1464 1464 1464 1464 1464 1464 1463
1456 1455 1454 1453 1453 1454 1454 1455 1455 1455 1455 1455 1456 1456 1457 1457 1457 1458 1457 1458 1458 1458 1458 1458 1457 1457 1457 1457 1457 1458 1459 1459 1459 1460 1460 1460 1461 1461 1461 1461 1461 1461 1461 1461
1453 1452 1451 1451 1450 1451 1452 1452 1453 1453 1453 1453 1454 1455 1455 1456 1456 1456 1456 1456 1456 1456 1456 1456 1456 1456 1456 1456 1456 1456 1457 1457 1457 1457 1458 1458 1458 1458 1458 1458 1458 1458 1458 1458
1449 1448 1447 1448 1448 1449 1450 1450 1451 1451 1451 1452 1452 1453 1454 1454 1455 1455 1455 1455 1455 1455 1455 1455 1455 1455 1455 1455 1455 1455 1455 1455 1455 1455 1455 1455 1456 1455 1455 1455 1455 1455 1456 1456
1448 1447 1446 1446 1447 1448 1448 1449 1450 1450 1451 1451 1451 1452 1452 1453 1453 1454 1454 1454 1454 1454 1454 1454 1454 1454 1454 1454 1453 1454 1454 1454 1454 1454 1454 1454 1454 1453 1453 1453 1453 1453 1453 1454
1449 1448 1447 1447 1447 1448 1448 1449 1449 1450 1450 1450 1451 1451 1452 1452 1452 1453 1453 1453 1454 1454 1453 1453 1453 1453 1453 1453 1453 1453 1453 1452 1452 1452 1452 1452 1452 1452 1451 1451 1451 1452 1452 1452
1450 1449 1448 1448 1448 1448 1448 1449 1449 1449 1450 1450 1451 1452 1452 1452 1452 1452 1453 1453 1453 1453 1453 1453 1453 1453 1453 1453 1452 1452 1452 1452 1451 1451 1451 1451 1451 1450 1450 1450 1450 1451 1451 1451
1450 1450 1449 1449 1449 1449 1449 1449 1450 1450 1450 1451 1451 1452 1452 1452 1453 1453 1453 1454 1454 1454 1454 1454 1453 1453 1453 1452 1452 1451 1451 1451 1451 1450 1450 1450 1450 1450 1449 1450 1450 1450 1451 1451
1451 1450 1450 1450 1450 1450 1450 1451 1451 1451 1451 1451 1452 1452 1453 1453 1453 1454 1454 1454 1455 1455 1455 1454 1454 1454 1453 1453 1452 1452 1451 1451 1451 1450 1450 1450 1449 1449 1449 1449 1449 1450 1450 1450
1451 1451 1451 1451 1451 1452 1452 1452 1452 1452 1453 1453 1453 1453 1454 1454 1455 1455 1455 1455 1456 1456 1456 1455 1455 1455 1455 1454 1454 1453 1453 1452 1451 1451 1451 1450 1450 1449 1449 1449 1449 1449 1449 1449
1452 1452 1452 1452 1452 1453 1453 1453 1453 1454 1454 1454 1454 1455 1455 1455 1456 1456 1456 1457 1457 1456 1457 1457 1456 1456 1456 1455 1455 1455 1454 1453 1453 1452 1452 1451 1450 1449 1448 1448 1449 1449 1448 1448
1453 1453 1453 1453 1453 1454 1454 1454 1454 1455 1455 1455 1456 1456 1457 1457 1457 1457 1457 1458 1458 1458 1458 1457 1457 1457 1457 1456 1456 1456 1455 1454 1454 1453 1452 1451 1450 1450 1449 1448 1448 1448 1448 1448